Tracking 30115 objects as of 9-Feb-2025
HD Live streaming from Space Station
objects crossing your sky now

CZ-4 DEB

Track CZ-4 DEB now!
10-day predictions


NORAD ID: 20900
Int'l Code: 1990-081BL
Perigee: 661.9 km
Apogee: 702.4 km
Inclination: 99.1 °
Period: 98.3 minutes
Semi major axis: 7053 km
RCS: 0.0514 m2 (small)
Launch date: September 3, 1990
Source: People's Republic of China (PRC)
Launch site: Taiyaun Space Center, China (TSC)

Note: This is SATELLITE DEBRIS
Your satellite tracking list
Your tracking list is empty




NASA's NSSDC Master Catalog

Two Line Element Set (TLE):
1 20900U 90081BL  25040.54663730  .00020665  00000-0  37783-2 0  9993
2 20900  99.0613  66.1760 0028727 264.4972 219.5764 14.65644758775617
Source of the keplerian elements: AFSPC